Time,TemperatureF,DewpointF,PressureIn,WindDirection,WindDirectionDegrees,WindSpeedMPH,WindSpeedGustMPH,Humidity,HourlyPrecipIn,Conditions,Clouds,dailyrainin,SoftwareType,DateUTC
2013-01-21 00:10:00,9.1,2.2,29.91,SW,229,5.0,5.0,73,0.00,,,0.00,Wunderground v.1.15,2013-01-21 05:10:00,
2013-01-21 00:15:00,9.0,1.8,29.91,WSW,237,5.0,5.0,72,0.00,,,0.00,Wunderground v.1.15,2013-01-21 05:15:00,
2013-01-21 00:20:00,8.9,2.0,29.92,SW,224,6.0,6.0,73,0.00,,,0.00,Wunderground v.1.15,2013-01-21 05:20:00,
2013-01-21 00:26:00,8.7,1.8,29.92,SSW,209,5.0,6.0,73,0.00,,,0.00,Wunderground v.1.15,2013-01-21 05:26:00,
2013-01-21 00:31:00,8.5,1.6,29.93,NW,306,4.0,4.0,73,0.00,,,0.00,Wunderground v.1.15,2013-01-21 05:31:00,
2013-01-21 00:41:00,8.2,1.0,29.93,NNE,32,4.0,4.0,72,0.00,,,0.00,Wunderground v.1.15,2013-01-21 05:41:00,
2013-01-21 00:45:00,8.1,1.2,29.93,WSW,244,3.0,4.0,73,0.00,,,0.00,Wunderground v.1.15,2013-01-21 05:45:00,
2013-01-21 00:50:00,7.9,1.0,29.93,WSW,240,2.0,4.0,73,0.00,,,0.00,Wunderground v.1.15,2013-01-21 05:50:00,
2013-01-21 00:55:00,7.7,0.8,29.93,North,9,2.0,2.0,73,0.00,,,0.00,Wunderground v.1.15,2013-01-21 05:55:00,
2013-01-21 01:00:00,7.6,0.7,29.93,WSW,245,2.0,3.0,73,0.00,,,0.00,Wunderground v.1.15,2013-01-21 06:00:00,
2013-01-21 01:05:00,7.5,0.7,29.94,West,277,2.0,3.0,73,0.00,,,0.00,Wunderground v.1.15,2013-01-21 06:05:00,
2013-01-21 01:15:00,7.2,0.7,29.93,NW,305,3.0,5.0,74,0.00,,,0.00,Wunderground v.1.15,2013-01-21 06:15:00,
2013-01-21 01:20:00,7.1,0.6,29.94,WNW,295,3.0,3.0,74,0.00,,,0.00,Wunderground v.1.15,2013-01-21 06:20:00,
2013-01-21 01:25:00,6.9,0.4,29.94,NW,315,3.0,3.0,74,0.00,,,0.00,Wunderground v.1.15,2013-01-21 06:25:00,
2013-01-21 01:30:00,6.8,0.3,29.94,ENE,69,3.0,3.0,74,0.00,,,0.00,Wunderground v.1.15,2013-01-21 06:30:00,
2013-01-21 01:35:00,6.6,0.4,29.94,NW,304,2.0,3.0,75,0.00,,,0.00,Wunderground v.1.15,2013-01-21 06:35:00,
2013-01-21 01:40:00,6.4,0.2,29.94,WSW,239,2.0,5.0,75,0.00,,,0.00,Wunderground v.1.15,2013-01-21 06:40:00,
2013-01-21 01:45:00,6.3,0.1,29.94,WNW,300,3.0,5.0,75,0.00,,,0.00,Wunderground v.1.15,2013-01-21 06:45:00,
2013-01-21 01:50:00,6.2,0.0,29.95,NNW,331,3.0,3.0,75,0.00,,,0.00,Wunderground v.1.15,2013-01-21 06:50:00,
2013-01-21 01:56:00,6.0,-0.2,29.95,West,261,3.0,4.0,75,0.00,,,0.00,Wunderground v.1.15,2013-01-21 06:56:00,
2013-01-21 02:10:00,5.7,-0.2,29.96,SSW,200,3.0,3.0,76,0.00,,,0.00,Wunderground v.1.15,2013-01-21 07:10:00,
2013-01-21 02:15:00,5.5,-0.4,29.96,WNW,298,2.0,2.0,76,0.00,,,0.00,Wunderground v.1.15,2013-01-21 07:15:00,
2013-01-21 02:21:00,5.4,-0.5,29.96,NNW,331,3.0,3.0,76,0.00,,,0.00,Wunderground v.1.15,2013-01-21 07:21:00,
2013-01-21 02:25:00,5.4,-0.5,29.96,WSW,251,3.0,3.0,76,0.00,,,0.00,Wunderground v.1.15,2013-01-21 07:25:00,
2013-01-21 02:35:00,5.1,-0.5,29.96,South,173,3.0,7.0,77,0.00,,,0.00,Wunderground v.1.15,2013-01-21 07:35:00,
2013-01-21 02:41:00,5.0,-0.9,29.96,NNE,19,3.0,7.0,76,0.00,,,0.00,Wunderground v.1.15,2013-01-21 07:41:00,
2013-01-21 02:45:00,5.0,-0.6,29.96,WSW,239,3.0,5.0,77,0.00,,,0.00,Wunderground v.1.15,2013-01-21 07:45:00,
2013-01-21 02:55:00,4.9,-0.7,29.97,SW,234,4.0,4.0,77,0.00,,,0.00,Wunderground v.1.15,2013-01-21 07:55:00,
2013-01-21 03:00:00,4.8,-1.1,29.97,WSW,241,4.0,7.0,76,0.00,,,0.00,Wunderground v.1.15,2013-01-21 08:00:00,
2013-01-21 03:05:00,4.7,-1.2,29.97,WSW,252,4.0,7.0,76,0.00,,,0.00,Wunderground v.1.15,2013-01-21 08:05:00,
2013-01-21 03:11:00,4.6,-1.3,29.97,SW,214,4.0,4.0,76,0.00,,,0.00,Wunderground v.1.15,2013-01-21 08:11:00,
2013-01-21 03:15:00,4.5,-1.4,29.98,SW,220,2.0,4.0,76,0.00,,,0.00,Wunderground v.1.15,2013-01-21 08:15:00,
2013-01-21 03:20:00,4.4,-1.2,29.98,WSW,246,1.0,6.0,77,0.00,,,0.00,Wunderground v.1.15,2013-01-21 08:20:00,
2013-01-21 03:30:00,4.2,-1.4,29.98,West,270,2.0,2.0,77,0.00,,,0.00,Wunderground v.1.15,2013-01-21 08:30:00,
2013-01-21 03:35:00,4.0,-1.6,29.98,South,177,1.0,4.0,77,0.00,,,0.00,Wunderground v.1.15,2013-01-21 08:35:00,
2013-01-21 03:41:00,3.8,-1.8,29.98,SW,236,2.0,2.0,77,0.00,,,0.00,Wunderground v.1.15,2013-01-21 08:41:00,
2013-01-21 03:45:00,3.3,-2.6,29.98,SW,236,1.0,2.0,76,0.00,,,0.00,Wunderground v.1.15,2013-01-21 08:45:00,
2013-01-21 03:55:00,2.5,-2.8,29.98,SSW,197,1.0,1.0,78,0.00,,,0.00,Wunderground v.1.15,2013-01-21 08:55:00,
2013-01-21 04:10:00,1.8,-3.5,29.98,East,101,0.0,0.0,78,0.00,,,0.00,Wunderground v.1.15,2013-01-21 09:10:00,
2013-01-21 04:15:00,1.8,-3.2,29.99,West,274,1.0,1.0,79,0.00,,,0.00,Wunderground v.1.15,2013-01-21 09:15:00,
2013-01-21 04:20:00,1.8,-3.2,29.99,NNW,330,1.0,4.0,79,0.00,,,0.00,Wunderground v.1.15,2013-01-21 09:20:00,
2013-01-21 04:25:00,2.0,-3.0,29.99,WSW,244,1.0,4.0,79,0.00,,,0.00,Wunderground v.1.15,2013-01-21 09:25:00,
2013-01-21 04:30:00,1.6,-3.7,29.99,WSW,244,1.0,1.0,78,0.00,,,0.00,Wunderground v.1.15,2013-01-21 09:30:00,
2013-01-21 04:40:00,0.6,-4.6,29.99,WSW,244,0.0,2.0,78,0.00,,,0.00,Wunderground v.1.15,2013-01-21 09:40:00,
2013-01-21 04:45:00,-0.1,-5.3,30.00,WSW,244,1.0,2.0,78,0.00,,,0.00,Wunderground v.1.15,2013-01-21 09:45:00,
2013-01-21 04:51:00,-0.9,-6.1,30.00,WSW,244,1.0,1.0,78,0.00,,,0.00,Wunderground v.1.15,2013-01-21 09:51:00,
2013-01-21 04:55:00,-1.3,-6.0,30.00,East,89,1.0,1.0,80,0.00,,,0.00,Wunderground v.1.15,2013-01-21 09:55:00,
2013-01-21 05:00:00,-1.4,-5.8,30.00,North,360,1.0,1.0,81,0.00,,,0.00,Wunderground v.1.15,2013-01-21 10:00:00,
2013-01-21 05:11:00,-2.1,-6.8,30.00,North,360,0.0,0.0,80,0.00,,,0.00,Wunderground v.1.15,2013-01-21 10:11:00,
2013-01-21 05:15:00,-2.6,-7.2,29.99,North,360,0.0,0.0,80,0.00,,,0.00,Wunderground v.1.15,2013-01-21 10:15:00,
2013-01-21 05:21:00,-2.7,-7.1,29.99,North,360,0.0,1.0,81,0.00,,,0.00,Wunderground v.1.15,2013-01-21 10:21:00,
2013-01-21 05:30:00,-3.5,-7.9,30.00,North,360,0.0,0.0,81,0.00,,,0.00,Wunderground v.1.15,2013-01-21 10:30:00,
2013-01-21 05:35:00,-3.7,-8.1,30.01,North,360,0.0,0.0,81,0.00,,,0.00,Wunderground v.1.15,2013-01-21 10:35:00,
2013-01-21 05:40:00,-4.0,-8.6,30.01,North,360,0.0,0.0,80,0.00,,,0.00,Wunderground v.1.15,2013-01-21 10:40:00,
2013-01-21 05:45:00,-4.4,-9.0,30.01,North,360,0.0,0.0,80,0.00,,,0.00,Wunderground v.1.15,2013-01-21 10:45:00,
2013-01-21 05:51:00,-4.7,-9.3,30.01,North,360,0.0,0.0,80,0.00,,,0.00,Wunderground v.1.15,2013-01-21 10:51:00,
2013-01-21 05:55:00,-4.9,-9.2,30.01,North,360,0.0,0.0,81,0.00,,,0.00,Wunderground v.1.15,2013-01-21 10:55:00,
2013-01-21 06:10:00,-5.9,-10.5,30.02,North,360,0.0,0.0,80,0.00,,,0.00,Wunderground v.1.15,2013-01-21 11:10:00,
2013-01-21 06:16:00,-6.2,-10.5,30.03,North,360,0.0,0.0,81,0.00,,,0.00,Wunderground v.1.15,2013-01-21 11:16:00,
2013-01-21 06:25:00,-6.5,-10.8,30.03,North,360,0.0,0.0,81,0.00,,,0.00,Wunderground v.1.15,2013-01-21 11:25:00,
2013-01-21 06:30:00,-6.7,-11.0,30.03,North,360,0.0,0.0,81,0.00,,,0.00,Wunderground v.1.15,2013-01-21 11:30:00,
2013-01-21 06:35:00,-6.9,-11.2,30.03,North,360,0.0,0.0,81,0.00,,,0.00,Wunderground v.1.15,2013-01-21 11:35:00,
2013-01-21 06:45:00,-7.5,-11.8,30.02,North,360,0.0,1.0,81,0.00,,,0.00,Wunderground v.1.15,2013-01-21 11:45:00,
2013-01-21 06:55:00,-8.3,-13.1,30.03,North,360,0.0,0.0,79,0.00,,,0.00,Wunderground v.1.15,2013-01-21 11:55:00,
2013-01-21 07:00:00,-8.5,-13.0,30.03,North,360,0.0,0.0,80,0.00,,,0.00,Wunderground v.1.15,2013-01-21 12:00:00,
2013-01-21 07:05:00,-8.6,-12.9,30.03,North,360,0.0,0.0,81,0.00,,,0.00,Wunderground v.1.15,2013-01-21 12:05:00,
2013-01-21 07:10:00,-9.0,-13.5,30.04,North,360,0.0,2.0,80,0.00,,,0.00,Wunderground v.1.15,2013-01-21 12:10:00,
2013-01-21 07:16:00,-9.0,-13.3,30.04,North,360,0.0,2.0,81,0.00,,,0.00,Wunderground v.1.15,2013-01-21 12:16:00,
2013-01-21 07:20:00,-9.1,-13.6,30.04,North,360,0.0,0.0,80,0.00,,,0.00,Wunderground v.1.15,2013-01-21 12:20:00,
2013-01-21 07:26:00,-9.3,-13.8,30.05,North,360,0.0,0.0,80,0.00,,,0.00,Wunderground v.1.15,2013-01-21 12:26:00,
2013-01-21 07:36:00,-8.9,-12.9,30.05,West,276,1.0,2.0,82,0.00,,,0.00,Wunderground v.1.15,2013-01-21 12:36:00,
2013-01-21 07:41:00,-8.4,-12.2,30.05,West,276,1.0,2.0,83,0.00,,,0.00,Wunderground v.1.15,2013-01-21 12:41:00,
2013-01-21 07:50:00,-8.2,-12.5,30.05,West,276,0.0,1.0,81,0.00,,,0.00,Wunderground v.1.15,2013-01-21 12:50:00,
2013-01-21 08:00:00,-7.3,-11.3,30.06,West,276,0.0,0.0,82,0.00,,,0.00,Wunderground v.1.15,2013-01-21 13:00:00,
2013-01-21 08:10:00,-6.4,-10.7,30.06,West,276,0.0,0.0,81,0.00,,,0.00,Wunderground v.1.15,2013-01-21 13:10:00,
2013-01-21 08:15:00,-5.6,-9.7,30.07,West,276,0.0,0.0,82,0.00,,,0.00,Wunderground v.1.15,2013-01-21 13:15:00,
2013-01-21 08:20:00,-5.0,-9.3,30.07,West,276,0.0,0.0,81,0.00,,,0.00,Wunderground v.1.15,2013-01-21 13:20:00,
2013-01-21 08:25:00,-4.5,-8.8,30.07,West,276,0.0,0.0,81,0.00,,,0.00,Wunderground v.1.15,2013-01-21 13:25:00,
2013-01-21 08:31:00,-3.6,-8.0,30.07,West,276,0.0,0.0,81,0.00,,,0.00,Wunderground v.1.15,2013-01-21 13:31:00,
2013-01-21 08:35:00,-2.6,-7.0,30.07,West,276,0.0,0.0,81,0.00,,,0.00,Wunderground v.1.15,2013-01-21 13:35:00,
2013-01-21 08:41:00,-1.2,-5.6,30.06,West,276,0.0,0.0,81,0.00,,,0.00,Wunderground v.1.15,2013-01-21 13:41:00,
2013-01-21 08:45:00,-0.1,-4.8,30.06,West,276,0.0,0.0,80,0.00,,,0.00,Wunderground v.1.15,2013-01-21 13:45:00,
2013-01-21 08:51:00,0.9,-4.4,30.06,West,276,0.0,0.0,78,0.00,,,0.00,Wunderground v.1.15,2013-01-21 13:51:00,
2013-01-21 08:56:00,1.8,-3.5,30.06,West,276,0.0,0.0,78,0.00,,,0.00,Wunderground v.1.15,2013-01-21 13:56:00,
2013-01-21 09:01:00,3.4,-2.2,30.06,West,276,0.0,0.0,77,0.00,,,0.00,Wunderground v.1.15,2013-01-21 14:01:00,
2013-01-21 09:10:00,5.7,-0.8,30.06,West,276,0.0,1.0,74,0.00,,,0.00,Wunderground v.1.15,2013-01-21 14:10:00,
2013-01-21 09:16:00,6.4,-0.7,30.06,West,276,1.0,1.0,72,0.00,,,0.00,Wunderground v.1.15,2013-01-21 14:16:00,
2013-01-21 09:25:00,6.3,-1.1,30.06,West,271,2.0,2.0,71,0.00,,,0.00,Wunderground v.1.15,2013-01-21 14:25:00,
2013-01-21 09:30:00,6.1,-1.3,30.06,ESE,102,2.0,2.0,71,0.00,,,0.00,Wunderground v.1.15,2013-01-21 14:30:00,
2013-01-21 09:40:00,7.2,-0.5,30.06,NNW,344,1.0,4.0,70,0.00,,,0.00,Wunderground v.1.15,2013-01-21 14:40:00,
2013-01-21 09:45:00,7.0,-0.7,30.06,North,349,2.0,4.0,70,0.00,,,0.00,Wunderground v.1.15,2013-01-21 14:45:00,
2013-01-21 09:50:00,7.9,-0.2,30.07,North,349,2.0,2.0,69,0.00,,,0.00,Wunderground v.1.15,2013-01-21 14:50:00,
2013-01-21 09:55:00,8.7,0.6,30.07,ESE,107,1.0,3.0,69,0.00,,,0.00,Wunderground v.1.15,2013-01-21 14:55:00,
2013-01-21 10:00:00,9.0,0.3,30.06,ESE,103,2.0,3.0,67,0.00,,,0.00,Wunderground v.1.15,2013-01-21 15:00:00,
2013-01-21 10:10:00,7.9,-0.8,30.07,East,98,3.0,3.0,67,0.00,,,0.00,Wunderground v.1.15,2013-01-21 15:10:00,
2013-01-21 10:15:00,8.0,-0.1,30.07,NE,51,3.0,3.0,69,0.00,,,0.00,Wunderground v.1.15,2013-01-21 15:15:00,
2013-01-21 10:20:00,8.2,-0.5,30.07,ESE,116,3.0,3.0,67,0.00,,,0.00,Wunderground v.1.15,2013-01-21 15:20:00,
2013-01-21 10:25:00,8.2,-0.5,30.07,ESE,102,3.0,3.0,67,0.00,,,0.00,Wunderground v.1.15,2013-01-21 15:25:00,
2013-01-21 10:30:00,8.1,-0.6,30.07,East,88,3.0,3.0,67,0.00,,,0.00,Wunderground v.1.15,2013-01-21 15:30:00,
2013-01-21 10:35:00,8.7,0.3,30.06,ENE,64,2.0,3.0,68,0.00,,,0.00,Wunderground v.1.15,2013-01-21 15:35:00,
2013-01-21 10:45:00,9.8,0.0,30.06,ESE,114,2.0,4.0,64,0.00,,,0.00,Wunderground v.1.15,2013-01-21 15:45:00,
2013-01-21 10:50:00,10.0,0.6,30.06,ESE,115,2.0,4.0,65,0.00,,,0.00,Wunderground v.1.15,2013-01-21 15:50:00,
2013-01-21 10:55:00,10.0,-0.1,30.05,ESE,123,2.0,3.0,63,0.00,,,0.00,Wunderground v.1.15,2013-01-21 15:55:00,
2013-01-21 11:10:00,9.6,0.5,30.05,ESE,114,4.0,4.0,66,0.00,,,0.00,Wunderground v.1.15,2013-01-21 16:10:00,
2013-01-21 11:16:00,10.4,1.0,30.05,ENE,71,3.0,4.0,65,0.00,,,0.00,Wunderground v.1.15,2013-01-21 16:16:00,
2013-01-21 11:20:00,10.7,0.6,30.05,SE,130,3.0,7.0,63,0.00,,,0.00,Wunderground v.1.15,2013-01-21 16:20:00,
2013-01-21 11:25:00,11.0,1.5,30.04,ESE,112,3.0,7.0,65,0.00,,,0.00,Wunderground v.1.15,2013-01-21 16:25:00,
2013-01-21 11:30:00,11.6,1.8,30.04,ENE,59,3.0,4.0,64,0.00,,,0.00,Wunderground v.1.15,2013-01-21 16:30:00,
2013-01-21 11:35:00,12.3,2.1,30.04,East,88,2.0,4.0,63,0.00,,,0.00,Wunderground v.1.15,2013-01-21 16:35:00,
2013-01-21 11:40:00,12.9,2.7,30.04,NE,40,2.0,2.0,63,0.00,,,0.00,Wunderground v.1.15,2013-01-21 16:40:00,
2013-01-21 11:45:00,13.1,2.2,30.03,NNE,32,2.0,3.0,61,0.00,,,0.00,Wunderground v.1.15,2013-01-21 16:45:00,
2013-01-21 11:51:00,13.0,1.7,30.03,SE,124,2.0,2.0,60,0.00,,,0.00,Wunderground v.1.15,2013-01-21 16:51:00,
2013-01-21 12:15:00,13.4,2.4,30.01,NNW,342,2.0,3.0,61,0.00,,,0.00,Wunderground v.1.15,2013-01-21 17:15:00,
2013-01-21 12:25:00,13.3,2.3,30.00,NNE,16,3.0,3.0,61,0.00,,,0.00,Wunderground v.1.15,2013-01-21 17:25:00,
2013-01-21 12:30:00,14.0,3.0,30.00,East,80,2.0,3.0,61,0.00,,,0.00,Wunderground v.1.15,2013-01-21 17:30:00,
2013-01-21 12:35:00,14.8,3.4,29.99,SE,137,1.0,2.0,60,0.00,,,0.00,Wunderground v.1.15,2013-01-21 17:35:00,
2013-01-21 12:40:00,14.6,2.1,29.99,SE,136,2.0,2.0,57,0.00,,,0.00,Wunderground v.1.15,2013-01-21 17:40:00,
2013-01-21 12:45:00,14.2,2.5,29.99,SE,136,2.0,2.0,59,0.00,,,0.00,Wunderground v.1.15,2013-01-21 17:45:00,
2013-01-21 12:50:00,14.5,2.4,29.98,SE,136,1.0,2.0,58,0.00,,,0.00,Wunderground v.1.15,2013-01-21 17:50:00,
2013-01-21 12:55:00,15.0,3.2,29.98,North,355,1.0,3.0,59,0.00,,,0.00,Wunderground v.1.15,2013-01-21 17:55:00,
2013-01-21 13:00:00,15.5,2.6,29.98,NNE,26,1.0,1.0,56,0.00,,,0.00,Wunderground v.1.15,2013-01-21 18:00:00,
2013-01-21 13:11:00,15.6,-0.6,29.98,West,265,3.0,3.0,48,0.00,,,0.00,Wunderground v.1.15,2013-01-21 18:11:00,
2013-01-21 13:21:00,15.4,-0.8,29.98,WSW,246,4.0,5.0,48,0.00,,,0.00,Wunderground v.1.15,2013-01-21 18:21:00,
2013-01-21 13:26:00,15.2,-1.5,29.98,WSW,256,5.0,5.0,47,0.00,,,0.00,Wunderground v.1.15,2013-01-21 18:26:00,
2013-01-21 13:36:00,15.2,-1.0,29.97,WSW,246,4.0,5.0,48,0.00,,,0.00,Wunderground v.1.15,2013-01-21 18:36:00,
2013-01-21 13:40:00,15.4,-0.8,29.97,South,186,3.0,4.0,48,0.00,,,0.00,Wunderground v.1.15,2013-01-21 18:40:00,
2013-01-21 13:45:00,15.4,-1.3,29.97,WSW,248,3.0,4.0,47,0.00,,,0.00,Wunderground v.1.15,2013-01-21 18:45:00,
2013-01-21 13:55:00,15.7,-1.0,29.97,West,278,4.0,4.0,47,0.00,,,0.00,Wunderground v.1.15,2013-01-21 18:55:00,
2013-01-21 14:00:00,15.8,-0.9,29.96,WNW,290,4.0,4.0,47,0.00,,,0.00,Wunderground v.1.15,2013-01-21 19:00:00,
2013-01-21 14:10:00,15.8,-1.4,29.97,SW,221,3.0,3.0,46,0.00,,,0.00,Wunderground v.1.15,2013-01-21 19:10:00,
2013-01-21 14:15:00,15.7,-1.4,29.97,South,188,4.0,4.0,46,0.00,,,0.00,Wunderground v.1.15,2013-01-21 19:15:00,
2013-01-21 14:25:00,15.6,-1.5,29.97,SW,219,4.0,4.0,46,0.00,,,0.00,Wunderground v.1.15,2013-01-21 19:25:00,
2013-01-21 14:30:00,15.6,-1.5,29.97,WSW,246,4.0,7.0,46,0.00,,,0.00,Wunderground v.1.15,2013-01-21 19:30:00,
2013-01-21 14:35:00,15.6,-2.0,29.97,WSW,239,4.0,7.0,45,0.00,,,0.00,Wunderground v.1.15,2013-01-21 19:35:00,
2013-01-21 14:41:00,15.7,-1.4,29.98,SE,128,3.0,3.0,46,0.00,,,0.00,Wunderground v.1.15,2013-01-21 19:41:00,
2013-01-21 14:46:00,15.8,-0.9,29.98,WSW,242,2.0,3.0,47,0.00,,,0.00,Wunderground v.1.15,2013-01-21 19:46:00,
2013-01-21 14:51:00,15.8,-1.8,29.98,West,270,2.0,6.0,45,0.00,,,0.00,Wunderground v.1.15,2013-01-21 19:51:00,
2013-01-21 14:56:00,15.8,-1.4,29.98,WNW,296,3.0,6.0,46,0.00,,,0.00,Wunderground v.1.15,2013-01-21 19:56:00,
2013-01-21 15:00:00,15.7,-1.9,29.98,SW,229,4.0,7.0,45,0.00,,,0.00,Wunderground v.1.15,2013-01-21 20:00:00,
2013-01-21 15:05:00,15.6,-1.5,29.98,West,261,3.0,7.0,46,0.00,,,0.00,Wunderground v.1.15,2013-01-21 20:05:00,
2013-01-21 15:15:00,15.5,-1.6,29.98,West,259,3.0,4.0,46,0.00,,,0.00,Wunderground v.1.15,2013-01-21 20:15:00,
2013-01-21 15:20:00,15.3,-2.3,29.98,WSW,239,3.0,4.0,45,0.00,,,0.00,Wunderground v.1.15,2013-01-21 20:20:00,
2013-01-21 15:30:00,15.4,-1.7,29.97,SW,228,2.0,4.0,46,0.00,,,0.00,Wunderground v.1.15,2013-01-21 20:30:00,
2013-01-21 15:35:00,15.3,-1.4,29.97,WSW,240,1.0,1.0,47,0.00,,,0.00,Wunderground v.1.15,2013-01-21 20:35:00,
2013-01-21 15:40:00,15.4,-1.3,29.97,WSW,240,1.0,1.0,47,0.00,,,0.00,Wunderground v.1.15,2013-01-21 20:40:00,
2013-01-21 15:45:00,15.4,-1.3,29.97,WSW,240,1.0,1.0,47,0.00,,,0.00,Wunderground v.1.15,2013-01-21 20:45:00,
2013-01-21 15:50:00,15.3,-1.8,29.97,NW,321,1.0,1.0,46,0.00,,,0.00,Wunderground v.1.15,2013-01-21 20:50:00,
2013-01-21 15:55:00,15.2,-1.9,29.97,WNW,300,1.0,1.0,46,0.00,,,0.00,Wunderground v.1.15,2013-01-21 20:55:00,
2013-01-21 16:11:00,15.0,-1.6,29.97,WNW,300,1.0,1.0,47,0.00,,,0.00,Wunderground v.1.15,2013-01-21 21:11:00,
2013-01-21 16:15:00,14.9,-1.3,29.97,WNW,300,1.0,1.0,48,0.00,,,0.00,Wunderground v.1.15,2013-01-21 21:15:00,
2013-01-21 16:20:00,14.9,-1.3,29.97,WNW,300,0.0,0.0,48,0.00,,,0.00,Wunderground v.1.15,2013-01-21 21:20:00,
2013-01-21 16:30:00,14.9,-0.8,29.97,WNW,300,0.0,1.0,49,0.00,,,0.00,Wunderground v.1.15,2013-01-21 21:30:00,
2013-01-21 16:35:00,14.8,-0.9,29.97,WNW,300,0.0,1.0,49,0.00,,,0.00,Wunderground v.1.15,2013-01-21 21:35:00,
2013-01-21 16:41:00,14.7,-1.0,29.97,WNW,300,0.0,0.0,49,0.00,,,0.00,Wunderground v.1.15,2013-01-21 21:41:00,
2013-01-21 16:46:00,14.6,-0.7,29.97,WNW,300,0.0,0.0,50,0.00,,,0.00,Wunderground v.1.15,2013-01-21 21:46:00,
2013-01-21 16:55:00,14.5,0.0,29.97,WNW,300,0.0,0.0,52,0.00,,,0.00,Wunderground v.1.15,2013-01-21 21:55:00,
2013-01-21 17:00:00,14.4,-0.5,29.97,WNW,300,0.0,0.0,51,0.00,,,0.00,Wunderground v.1.15,2013-01-21 22:00:00,
2013-01-21 17:10:00,14.3,0.3,29.97,WNW,300,0.0,0.0,53,0.00,,,0.00,Wunderground v.1.15,2013-01-21 22:10:00,
2013-01-21 17:16:00,14.2,0.6,29.97,WNW,300,0.0,0.0,54,0.00,,,0.00,Wunderground v.1.15,2013-01-21 22:16:00,
2013-01-21 17:25:00,14.2,1.0,29.97,WNW,300,0.0,0.0,55,0.00,,,0.00,Wunderground v.1.15,2013-01-21 22:25:00,
2013-01-21 17:30:00,14.1,1.6,29.97,WNW,300,0.0,0.0,57,0.00,,,0.00,Wunderground v.1.15,2013-01-21 22:30:00,
2013-01-21 17:35:00,14.0,1.9,29.97,WNW,301,0.0,0.0,58,0.00,,,0.00,Wunderground v.1.15,2013-01-21 22:35:00,
2013-01-21 17:45:00,14.0,2.3,29.97,WNW,301,0.0,1.0,59,0.00,,,0.00,Wunderground v.1.15,2013-01-21 22:45:00,
2013-01-21 17:55:00,13.9,2.6,29.97,WNW,301,0.0,0.0,60,0.00,,,0.00,Wunderground v.1.15,2013-01-21 22:55:00,
2013-01-21 18:00:00,13.9,2.6,29.97,WNW,301,0.0,0.0,60,0.00,,,0.00,Wunderground v.1.15,2013-01-21 23:00:00,
2013-01-21 18:06:00,13.8,2.8,29.97,WNW,300,0.0,0.0,61,0.00,,,0.00,Wunderground v.1.15,2013-01-21 23:06:00,
2013-01-21 18:10:00,13.8,3.2,29.98,WNW,300,0.0,0.0,62,0.00,,,0.00,Wunderground v.1.15,2013-01-21 23:10:00,
2013-01-21 18:15:00,13.8,3.5,29.98,WNW,300,0.0,0.0,63,0.00,,,0.00,Wunderground v.1.15,2013-01-21 23:15:00,
2013-01-21 18:20:00,13.8,3.9,29.98,WNW,300,0.0,0.0,64,0.00,,,0.00,Wunderground v.1.15,2013-01-21 23:20:00,
2013-01-21 18:25:00,13.6,3.3,29.98,WNW,301,0.0,2.0,63,0.00,,,0.00,Wunderground v.1.15,2013-01-21 23:25:00,
2013-01-21 18:30:00,13.4,3.8,29.98,NW,304,1.0,1.0,65,0.00,,,0.00,Wunderground v.1.15,2013-01-21 23:30:00,
2013-01-21 18:35:00,13.1,4.5,29.98,WNW,285,1.0,4.0,68,0.00,,,0.00,Wunderground v.1.15,2013-01-21 23:35:00,
2013-01-21 18:40:00,12.8,4.9,29.98,North,350,2.0,2.0,70,0.00,,,0.00,Wunderground v.1.15,2013-01-21 23:40:00,
2013-01-21 18:46:00,12.5,5.2,29.98,North,350,2.0,4.0,72,0.00,,,0.00,Wunderground v.1.15,2013-01-21 23:46:00,
2013-01-21 18:55:00,12.1,5.7,29.98,NNW,340,1.0,1.0,75,0.00,,,0.00,Wunderground v.1.15,2013-01-21 23:55:00,
2013-01-21 19:00:00,12.0,6.2,29.98,NNW,348,1.0,1.0,77,0.00,,,0.00,Wunderground v.1.15,2013-01-22 00:00:00,
2013-01-21 19:11:00,11.8,6.3,29.98,NNW,348,1.0,1.0,78,0.00,,,0.00,Wunderground v.1.15,2013-01-22 00:11:00,
2013-01-21 19:20:00,11.6,6.6,29.99,NNW,348,1.0,1.0,80,0.00,,,0.00,Wunderground v.1.15,2013-01-22 00:20:00,
2013-01-21 19:30:00,11.6,6.6,29.99,NNW,348,0.0,0.0,80,0.00,,,0.00,Wunderground v.1.15,2013-01-22 00:30:00,
2013-01-21 19:36:00,11.6,6.6,29.98,NNW,348,0.0,0.0,80,0.00,,,0.00,Wunderground v.1.15,2013-01-22 00:36:00,
2013-01-21 19:41:00,11.6,6.9,29.98,NNW,348,0.0,0.0,81,0.00,,,0.00,Wunderground v.1.15,2013-01-22 00:41:00,
2013-01-21 19:46:00,11.7,7.0,29.98,NNW,348,0.0,2.0,81,0.00,,,0.00,Wunderground v.1.15,2013-01-22 00:46:00,
2013-01-21 19:51:00,11.6,6.9,29.98,NNW,348,0.0,0.0,81,0.00,,,0.00,Wunderground v.1.15,2013-01-22 00:51:00,
2013-01-21 19:55:00,11.7,7.0,29.98,NNW,348,0.0,0.0,81,0.00,,,0.00,Wunderground v.1.15,2013-01-22 00:55:00,
2013-01-21 20:00:00,11.7,7.0,29.97,NNW,348,0.0,0.0,81,0.00,,,0.00,Wunderground v.1.15,2013-01-22 01:00:00,
2013-01-21 20:05:00,11.7,7.3,29.98,NNW,348,0.0,0.0,82,0.00,,,0.00,Wunderground v.1.15,2013-01-22 01:05:00,
2013-01-21 20:11:00,11.8,7.4,29.97,NNW,348,0.0,0.0,82,0.00,,,0.00,Wunderground v.1.15,2013-01-22 01:11:00,
2013-01-21 20:20:00,11.7,7.3,29.97,NNW,348,0.0,0.0,82,0.00,,,0.00,Wunderground v.1.15,2013-01-22 01:20:00,
2013-01-21 20:30:00,11.8,7.4,29.97,NNW,348,0.0,0.0,82,0.00,,,0.00,Wunderground v.1.15,2013-01-22 01:30:00,
2013-01-21 20:35:00,11.7,7.3,29.97,NNW,348,0.0,0.0,82,0.00,,,0.00,Wunderground v.1.15,2013-01-22 01:35:00,
2013-01-21 20:40:00,11.8,7.6,29.97,NNW,348,0.0,0.0,83,0.00,,,0.00,Wunderground v.1.15,2013-01-22 01:40:00,
2013-01-21 20:50:00,11.8,7.6,29.96,NNW,348,0.0,0.0,83,0.00,,,0.00,Wunderground v.1.15,2013-01-22 01:50:00,
2013-01-21 20:55:00,11.8,7.6,29.96,NNW,348,0.0,0.0,83,0.00,,,0.00,Wunderground v.1.15,2013-01-22 01:55:00,
2013-01-21 21:05:00,11.7,7.5,29.95,NNW,348,0.0,0.0,83,0.00,,,0.00,Wunderground v.1.15,2013-01-22 02:05:00,
2013-01-21 21:20:00,11.6,7.4,29.95,NNW,348,0.0,0.0,83,0.00,,,0.00,Wunderground v.1.15,2013-01-22 02:20:00,
2013-01-21 21:25:00,11.7,7.5,29.95,NNW,348,0.0,0.0,83,0.00,,,0.00,Wunderground v.1.15,2013-01-22 02:25:00,
2013-01-21 21:35:00,11.7,7.5,29.94,NNW,348,0.0,0.0,83,0.00,,,0.00,Wunderground v.1.15,2013-01-22 02:35:00,
2013-01-21 21:40:00,11.6,7.4,29.94,NNW,348,0.0,0.0,83,0.00,,,0.00,Wunderground v.1.15,2013-01-22 02:40:00,
2013-01-21 21:45:00,11.5,7.3,29.94,NNW,348,0.0,0.0,83,0.00,,,0.00,Wunderground v.1.15,2013-01-22 02:45:00,
2013-01-21 21:50:00,11.4,7.2,29.94,NNW,348,0.0,0.0,83,0.00,,,0.00,Wunderground v.1.15,2013-01-22 02:50:00,
2013-01-21 21:55:00,11.2,7.3,29.93,NNW,348,0.0,0.0,84,0.00,,,0.00,Wunderground v.1.15,2013-01-22 02:55:00,
2013-01-21 22:05:00,11.0,7.1,29.93,NNW,348,0.0,0.0,84,0.00,,,0.00,Wunderground v.1.15,2013-01-22 03:05:00,
2013-01-21 22:10:00,10.9,7.0,29.93,NNW,348,0.0,0.0,84,0.00,,,0.00,Wunderground v.1.15,2013-01-22 03:10:00,
2013-01-21 22:15:00,10.8,6.9,29.92,NNW,348,0.0,0.0,84,0.00,,,0.00,Wunderground v.1.15,2013-01-22 03:15:00,
2013-01-21 22:20:00,10.6,6.7,29.92,NNW,348,0.0,0.0,84,0.00,,,0.00,Wunderground v.1.15,2013-01-22 03:20:00,
2013-01-21 22:25:00,10.6,6.7,29.91,NNW,348,0.0,0.0,84,0.00,,,0.00,Wunderground v.1.15,2013-01-22 03:25:00,
2013-01-21 22:40:00,9.8,5.7,29.91,North,349,0.0,0.0,83,0.00,,,0.00,Wunderground v.1.15,2013-01-22 03:40:00,
2013-01-21 22:45:00,9.4,5.0,29.90,North,349,0.0,0.0,82,0.00,,,0.00,Wunderground v.1.15,2013-01-22 03:45:00,
2013-01-21 22:51:00,9.1,5.0,29.90,North,349,0.0,0.0,83,0.00,,,0.00,Wunderground v.1.15,2013-01-22 03:51:00,
2013-01-21 22:55:00,8.9,4.5,29.90,North,349,0.0,0.0,82,0.00,,,0.00,Wunderground v.1.15,2013-01-22 03:55:00,
2013-01-21 23:00:00,8.7,4.3,29.90,North,349,0.0,0.0,82,0.00,,,0.00,Wunderground v.1.15,2013-01-22 04:00:00,
2013-01-21 23:15:00,7.8,3.2,29.89,North,349,0.0,0.0,81,0.00,,,0.00,Wunderground v.1.15,2013-01-22 04:15:00,
2013-01-21 23:20:00,7.4,2.8,29.88,North,349,0.0,0.0,81,0.00,,,0.00,Wunderground v.1.15,2013-01-22 04:20:00,
2013-01-21 23:25:00,7.0,2.4,29.88,North,349,0.0,0.0,81,0.00,,,0.00,Wunderground v.1.15,2013-01-22 04:25:00,
2013-01-21 23:35:00,6.0,1.7,29.87,North,349,0.0,0.0,82,0.00,,,0.00,Wunderground v.1.15,2013-01-22 04:35:00,
2013-01-21 23:40:00,5.8,1.2,29.87,North,349,0.0,0.0,81,0.00,,,0.00,Wunderground v.1.15,2013-01-22 04:40:00,
2013-01-21 23:45:00,5.4,0.8,29.86,North,349,0.0,0.0,81,0.00,,,0.00,Wunderground v.1.15,2013-01-22 04:45:00,
2013-01-21 23:50:00,4.9,0.3,29.86,North,349,0.0,0.0,81,0.00,,,0.00,Wunderground v.1.15,2013-01-22 04:50:00,
2013-01-21 23:55:00,4.5,0.2,29.85,North,349,0.0,0.0,82,0.00,,,0.00,Wunderground v.1.15,2013-01-22 04:55:00,